This demonstration page uses our WeatherBlox Daily Observations layout. Learn more.

Left ArrowRight Arrow

44.8408, -93.29828

Hourly Observations for September 4, 2022

Temp ( °F °C ) Dew Point ( °F °C ) Humidity (%) Winds ( mph kmh ) Pressure ( in mb ) Visibility ( mi km ) Precip ( " mm )
12:53 am 00:53 Clear 60 15.6 46 7.8 60 60 ENE 7 11 30.24 1024 10 16 0.00 0.00
1:53 am 01:53 Clear 58 14.4 47 8.3 67 67 ENE 5 7 30.23 1024 10 16 0.00 0.00
2:53 am 02:53 Clear 56 13.3 47 8.3 72 72 NNE 6 9 30.23 1024 10 16 0.00 0.00
3:53 am 03:53 Clear 54 12.2 47 8.3 77 77 NNE 6 9 30.24 1024 10 16 0.00 0.00
4:53 am 04:53 Clear 54 12.2 47 8.3 77 77 NE 8 13 30.23 1024 10 16 0.00 0.00
5:53 am 05:53 Clear 53 11.7 47 8.3 80 80 NE 5 7 30.23 1024 10 16 0.00 0.00
6:53 am 06:53 Mostly Sunny 53 11.7 47 8.3 80 80 NNE 5 7 30.25 1024 10 16 0.00 0.00
7:53 am 07:53 Mostly Sunny 55 12.8 49 9.4 80 80 VRB 5 7 30.26 1025 10 16 0.00 0.00
8:53 am 08:53 Mostly Sunny 58 14.4 51 10.6 78 78 ESE 8 13 30.24 1024 10 16 0.00 0.00
9:53 am 09:53 Sunny 62 16.7 52 11.1 70 70 ESE 6 9 30.24 1024 10 16 0.00 0.00
10:53 am 10:53 Sunny 65 18.3 52 11.1 63 63 ESE 7 11 30.24 1024 10 16 0.00 0.00
11:53 am 11:53 Sunny 68 20 52 11.1 57 57 E 6 9 30.22 1024 10 16 0.00 0.00
12:53 pm 12:53 Mostly Sunny 70 21.1 53 11.7 55 55 E 7 11 30.20 1023 10 16 0.00 0.00
1:53 pm 13:53 Mostly Sunny 72 22.2 54 12.2 53 53 Calm 30.18 1022 10 16 0.00 0.00
2:53 pm 14:53 Mostly Sunny 74 23.3 53 11.7 48 48 ENE 7 11 30.16 1021 10 16 0.00 0.00
3:53 pm 15:53 Sunny 74 23.3 54 12.2 50 50 ESE 7 11 30.13 1020 10 16 0.00 0.00
4:53 pm 16:53 Sunny 75 23.9 51 10.6 43 43 ESE 7 11 30.12 1020 10 16 0.00 0.00
5:53 pm 17:53 Sunny 74 23.3 50 10 43 43 ESE 10 17 30.12 1020 10 16 0.00 0.00
6:53 pm 18:53 Sunny 72 22.2 51 10.6 48 48 E 10 17 30.11 1020 10 16 0.00 0.00
7:53 pm 19:53 Mostly Clear 70 21.1 50 10 49 49 ESE 9 15 30.11 1020 10 16 0.00 0.00
8:53 pm 20:53 Mostly Clear 68 20 51 10.6 55 55 ESE 10 17 30.12 1020 10 16 0.00 0.00
9:53 pm 21:53 Mostly Clear 66 18.9 52 11.1 61 61 E 9 15 30.12 1020 10 16 0.00 0.00
10:53 pm 22:53 Clear 64 17.8 53 11.7 67 67 SE 8 13 30.11 1020 10 16 0.00 0.00
11:53 pm 23:53 Clear 62 16.7 54 12.2 75 75 ESE 9 15 30.11 1020 10 16 0.00 0.00

Powered by AerisWeather